Weather History for Key West NAF, FL

Change the Weather History Date:

Thursday, March 14, 2013

  Actual Average Record
Temperature  
Mean Temperature 66 °F -  
Max Temperature 70 °F 78 °F 85 °F (1950)
Min Temperature 63 °F 68 °F 54 °F (1993)
Cooling Degree Days 2    
Growing Degree Days 16 (Base 50)    
Moisture  
Dew Point 48 °F    
Average Humidity 52    
Maximum Humidity 70    
Minimum Humidity 40    
Precipitation  
Precipitation 0.00 in - - ()
Sea Level Pressure  
Sea Level Pressure 30.17 in    
Wind  
Wind Speed 17 mph (North)    
Max Wind Speed 23 mph    
Max Gust Speed 31 mph    
Visibility 10 miles    
Events      
Averages and records for this station are not official NWS values.
T = Trace of Precipitation, MM = Missing Value Source: NWS Daily Summary

Daily Weather History Graph

Daily Weather History Graph

Search for Another Location

Airport:

Trip Planner

Search our weather history database for the weather conditions in past years. The results will help you decide how hot, cold, wet, or windy it might be!

Date:

Astronomy

Mar. 14, 2013 Rise Set
Actual Time 7:36 AM EDT 7:35 PM EDT
Civil Twilight 7:13 AM EDT 7:58 PM EDT
Nautical Twilight 6:47 AM EDT 8:24 PM EDT
Astronomical Twilight 6:20 AM EDT 8:51 PM EDT
Moon 9:11 AM EDT (3/14) 10:24 PM EDT (3/14)
Length of Visible Light 12h 44m
Length of Day
11h 58m
Waxing Crescent, 9% of the Moon is Illuminated
Mar 14
Waxing Crescent
Mar 19
First Quarter
Mar 27
Full
Apr 3
Last Quarter
Apr 10
New

Hourly Weather History & Observations

Time (EDT) Temp. Dew Point Humidity Pressure Visibility Wind Dir Wind Speed Gust Speed Precip Events Conditions
12:53 AM 66.9 °F 55.0 °F 66% 30.14 in 10.0 mi North 18.4 mph 25.3 mph N/A   Clear
1:53 AM 68.0 °F 51.1 °F 55% 30.13 in 10.0 mi North 20.7 mph 26.5 mph N/A   Clear
2:53 AM 66.9 °F 53.1 °F 61% 30.13 in 10.0 mi North 19.6 mph 26.5 mph N/A   Clear
3:53 AM 64.9 °F 55.0 °F 70% 30.12 in 10.0 mi NNE 17.3 mph 26.5 mph N/A   Clear
4:53 AM 63.0 °F 46.9 °F 56% 30.12 in 10.0 mi North 19.6 mph 28.8 mph N/A   Clear
5:53 AM 63.0 °F 46.9 °F 56% 30.12 in 10.0 mi North 19.6 mph 31.1 mph N/A   Clear
6:53 AM 63.0 °F 48.0 °F 58% 30.14 in 10.0 mi North 20.7 mph 28.8 mph N/A   Clear
7:53 AM 63.0 °F 48.0 °F 58% 30.17 in 10.0 mi North 15.0 mph 25.3 mph N/A   Mostly Cloudy
8:53 AM 64.9 °F 45.0 °F 48% 30.19 in 10.0 mi North 23.0 mph 31.1 mph N/A   Mostly Cloudy
9:53 AM 66.0 °F 44.1 °F 45% 30.22 in 10.0 mi NNE 21.9 mph 28.8 mph N/A   Mostly Cloudy
10:53 AM 66.9 °F 46.0 °F 47% 30.22 in 10.0 mi NNE 17.3 mph 27.6 mph N/A   Mostly Cloudy
11:53 AM 66.0 °F 43.0 °F 43% 30.22 in 10.0 mi North 18.4 mph 26.5 mph N/A   Mostly Cloudy
12:53 PM 68.0 °F 43.0 °F 40% 30.21 in 10.0 mi NNE 13.8 mph 21.9 mph N/A   Mostly Cloudy
1:53 PM 66.9 °F 43.0 °F 42% 30.18 in 10.0 mi NNE 16.1 mph 21.9 mph N/A   Overcast
2:53 PM 68.0 °F 45.0 °F 43% 30.17 in 10.0 mi North 17.3 mph 21.9 mph N/A   Mostly Cloudy
3:53 PM 70.0 °F 46.0 °F 42% 30.15 in 10.0 mi North 17.3 mph - N/A   Scattered Clouds
4:53 PM 70.0 °F 45.0 °F 41% 30.15 in 10.0 mi NNW 13.8 mph - N/A   Scattered Clouds
5:53 PM 69.1 °F 44.1 °F 40% 30.14 in 10.0 mi North 11.5 mph - N/A   Scattered Clouds
6:53 PM 66.0 °F 46.0 °F 48% 30.16 in 10.0 mi North 11.5 mph - N/A   Scattered Clouds
7:53 PM 64.0 °F 46.9 °F 54% 30.16 in 10.0 mi North 11.5 mph - N/A   Scattered Clouds
8:53 PM 64.0 °F 48.0 °F 56% 30.17 in 10.0 mi North 10.4 mph - N/A   Partly Cloudy
9:53 PM 64.0 °F 50.0 °F 60% 30.19 in 10.0 mi North 13.8 mph - N/A   Partly Cloudy
10:53 PM 64.0 °F 50.0 °F 60% 30.19 in 10.0 mi North 12.7 mph - N/A   Clear
11:53 PM 64.0 °F 51.1 °F 63% 30.19 in 10.0 mi NNE 8.1 mph - N/A   Clear